Date String (YYYY-MM-DD hh:mm:ss) UTC,Instrument flags,absolute air pressure of the measurement (hPa),sample flow rate (lpm),inlet stack bypass flow (lpm),air temperature of the measurement (°C),ambient temperature measured by the external sensor (°C),aerosol sample conditioner tube jacket temperature (°C),OPC LED temperature (°C),internal box temperature (°C),relative humidity of the measurement (%),span deviation,mass concentration of particles derived from Lorenz-Mie calculation of OPC scattering (μg/m³),mass concentration of particles derived from Lorenz-Mie calculation of OPC scattering (μg/m³),mass concentration of particles derived from Lorenz-Mie calculation of OPC scattering (μg/m³)
DateTimeUTC,F1_M11,P_M11,Q1_M11,Q2_M11,T1_M11,T2_M11,T3_M11,T4_M11,T5_M11,U1_M11,ZSPAN_M11,X0_M11,X2_M11,X1_M11
2024-06-12 05:00:00,SystemResetWarning,0828.6,5.00,000.00,030.2,029.7,000.0,038.2,032.0,025.1,0000.0,0017.82,0007.61,0006.39
2024-06-12 05:01:00,SystemResetWarning,0828.7,4.99,000.00,030.2,029.8,000.0,038.2,032.0,025.0,0000.0,0017.48,0007.64,0006.39
2024-06-12 05:02:00,SystemResetWarning,0828.6,4.99,000.00,030.2,029.4,000.0,038.3,031.8,025.0,0000.0,0017.19,0007.65,0006.39
2024-06-12 05:03:00,SystemResetWarning,0828.6,5.00,000.00,029.9,027.2,000.0,038.4,030.8,025.4,0000.0,0018.13,0007.69,0006.39
2024-06-12 05:04:00,SystemResetWarning,0828.6,5.01,000.00,029.6,026.4,000.0,038.4,030.4,025.9,0000.0,0017.78,0007.69,0006.39
2024-06-12 05:05:00,SystemResetWarning,0828.6,5.00,000.00,029.4,026.7,000.0,038.2,030.4,026.1,0000.0,0017.59,0007.68,0006.40
2024-06-12 05:06:00,SystemResetWarning,0828.7,5.00,000.00,029.4,027.1,000.0,038.1,030.6,026.0,0000.0,0017.22,0007.67,0006.40
2024-06-12 05:07:00,SystemResetWarning,0828.6,5.00,000.00,029.4,027.5,000.0,038.0,030.8,025.9,0000.0,0016.55,0007.62,0006.40
2024-06-12 05:08:00,SystemResetWarning,0828.6,5.00,000.00,029.5,027.9,000.0,038.0,031.0,026.0,0000.0,0016.57,0007.58,0006.40
2024-06-12 05:09:00,SystemResetWarning,0828.6,5.01,000.00,029.5,028.1,000.0,038.0,031.1,026.0,0000.0,0016.55,0007.55,0006.39
2024-06-12 05:10:00,SystemResetWarning,0828.6,5.00,000.00,029.6,028.4,000.0,037.9,031.3,025.7,0000.0,0016.90,0007.56,0006.38
2024-06-12 05:11:00,SystemResetWarning,0828.6,5.00,000.00,029.6,028.6,000.0,037.9,031.3,025.5,0000.0,0016.48,0007.54,0006.37
2024-06-12 05:12:00,SystemResetWarning,0828.6,5.01,000.00,029.7,028.8,000.0,037.9,031.4,025.6,0000.0,0018.05,0007.57,0006.37
2024-06-12 05:13:00,SystemResetWarning,0828.6,5.00,000.00,029.7,028.9,000.0,038.0,031.5,025.3,0000.0,0018.76,0007.58,0006.36
2024-06-12 05:14:00,SystemResetWarning,0828.6,5.00,000.00,029.8,029.1,000.0,038.0,031.5,025.2,0000.0,0019.31,0007.57,0006.36
2024-06-12 05:15:00,SystemResetWarning,0828.6,5.00,000.00,029.8,029.2,000.0,038.0,031.6,025.0,0000.0,0018.38,0007.53,0006.35
2024-06-12 05:16:00,SystemResetWarning,0828.6,5.00,000.00,029.9,029.3,000.0,038.0,031.7,025.0,0000.0,0019.18,0007.51,0006.33
2024-06-12 05:17:00,SystemResetWarning,0828.6,5.00,000.00,029.9,029.4,000.0,038.0,031.7,025.0,0000.0,0019.71,0007.51,0006.32
2024-06-12 05:18:00,SystemResetWarning,0828.6,4.99,000.00,030.0,029.4,000.0,038.1,031.8,024.9,0000.0,0020.30,0007.54,0006.30
2024-06-12 05:19:00,SystemResetWarning,0828.6,4.99,000.00,030.0,029.5,000.0,038.1,031.8,024.6,0000.0,0020.81,0007.51,0006.29
2024-06-12 05:20:00,SystemResetWarning,0828.6,5.01,000.00,030.1,029.6,000.0,038.1,031.8,024.5,0000.0,0019.93,0007.46,0006.27
2024-06-12 05:21:00,SystemResetWarning,0828.6,5.01,000.00,030.1,029.6,000.0,038.2,031.9,024.4,0000.0,0019.98,0007.42,0006.25
2024-06-12 05:22:00,SystemResetWarning,0828.6,5.00,000.00,030.2,029.7,000.0,038.2,031.9,024.4,0000.0,0020.01,0007.42,0006.22
2024-06-12 05:23:00,SystemResetWarning,0828.6,5.00,000.00,030.2,029.7,000.0,038.3,032.0,024.4,0000.0,0018.75,0007.37,0006.22
2024-06-12 05:24:00,SystemResetWarning,0828.6,4.99,000.00,030.3,029.8,000.0,038.3,032.0,024.3,0000.0,0017.98,0007.34,0006.21
2024-06-12 05:25:00,SystemResetWarning,0828.6,4.99,000.00,030.3,029.8,000.0,038.3,032.0,024.2,0000.0,0016.84,0007.32,0006.21
2024-06-12 05:26:00,SystemResetWarning,0828.6,4.99,000.00,030.3,029.5,000.0,038.4,031.8,024.2,0000.0,0016.52,0007.31,0006.20
2024-06-12 05:27:00,SystemResetWarning,0828.5,5.00,000.00,030.0,027.2,000.0,038.4,030.8,024.5,0000.0,0015.41,0007.27,0006.20
2024-06-12 05:28:00,SystemResetWarning,0828.5,5.01,000.00,029.6,026.4,000.0,038.4,030.3,025.2,0000.0,0014.91,0007.25,0006.19
2024-06-12 05:29:00,SystemResetWarning,0828.5,5.01,000.00,029.5,026.6,000.0,038.3,030.3,025.8,0000.0,0014.81,0007.21,0006.19
2024-06-12 05:30:00,SystemResetWarning,0828.6,4.99,000.00,029.4,027.1,000.0,038.2,030.6,025.5,0000.0,0014.77,0007.22,0006.19
2024-06-12 05:31:00,SystemResetWarning,0828.6,5.01,000.00,029.4,027.5,000.0,038.1,030.8,025.9,0000.0,0014.98,0007.25,0006.19
2024-06-12 05:32:00,SystemResetWarning,0828.6,5.00,000.00,029.5,027.8,000.0,038.1,031.0,025.9,0000.0,0014.13,0007.22,0006.19
2024-06-12 05:33:00,SystemResetWarning,0828.6,5.00,000.00,029.5,028.1,000.0,038.0,031.1,025.6,0000.0,0013.46,0007.17,0006.19
2024-06-12 05:34:00,SystemResetWarning,0828.6,5.00,000.00,029.6,028.4,000.0,038.0,031.2,025.3,0000.0,0013.85,0007.18,0006.18
2024-06-12 05:35:00,SystemResetWarning,0828.6,5.00,000.00,029.6,028.6,000.0,038.0,031.3,025.1,0000.0,0014.46,0007.15,0006.17
2024-06-12 05:36:00,SystemResetWarning,0828.6,5.00,000.00,029.7,028.8,000.0,038.0,031.4,024.8,0000.0,0014.58,0007.12,0006.15
2024-06-12 05:37:00,SystemResetWarning,0828.6,5.00,000.00,029.7,028.9,000.0,038.0,031.5,024.3,0000.0,0014.81,0007.12,0006.14
2024-06-12 05:38:00,SystemResetWarning,0828.6,5.00,000.00,029.8,029.0,000.0,038.0,031.5,024.4,0000.0,0015.86,0007.17,0006.12
2024-06-12 05:39:00,SystemResetWarning,0828.6,5.00,000.00,029.8,029.1,000.0,038.0,031.6,024.1,0000.0,0016.33,0007.12,0006.09
2024-06-12 05:40:00,SystemResetWarning,0828.6,5.00,000.00,029.9,029.2,000.0,038.0,031.7,024.0,0000.0,0017.11,0007.11,0006.07
2024-06-12 05:41:00,SystemResetWarning,0828.6,4.99,000.00,029.9,029.3,000.0,038.1,031.7,023.9,0000.0,0017.18,0007.11,0006.05
2024-06-12 05:42:00,SystemResetWarning,0828.6,4.99,000.00,030.0,029.4,000.0,038.1,031.8,024.0,0000.0,0017.60,0007.10,0006.03
2024-06-12 05:43:00,SystemResetWarning,0828.6,4.99,000.00,030.0,029.5,000.0,038.1,031.8,023.9,0000.0,0018.35,0007.11,0006.03
2024-06-12 05:44:00,SystemResetWarning,0828.6,5.00,000.00,030.1,029.5,000.0,038.2,031.8,023.8,0000.0,0019.12,0007.08,0006.00
2024-06-12 05:45:00,SystemResetWarning,0828.6,5.01,000.00,030.1,029.6,000.0,038.2,031.9,023.7,0000.0,0019.85,0007.00,0005.97
2024-06-12 05:46:00,SystemResetWarning,0828.6,5.01,000.00,030.1,029.6,000.0,038.2,031.9,023.9,0000.0,0019.70,0006.94,0005.94
2024-06-12 05:47:00,SystemResetWarning,0828.6,4.99,000.00,030.2,029.7,000.0,038.3,031.9,023.6,0000.0,0020.60,0006.94,0005.92
2024-06-12 05:48:00,SystemResetWarning,0828.6,4.98,000.00,030.2,029.7,000.0,038.3,032.0,023.1,0000.0,0020.81,0006.91,0005.90
2024-06-12 05:49:00,SystemResetWarning,0828.6,5.00,000.00,030.3,029.8,000.0,038.3,032.0,022.8,0000.0,0020.40,0006.86,0005.89
2024-06-12 05:50:00,SystemResetWarning,0828.6,5.00,000.00,030.3,029.8,000.0,038.4,032.0,022.8,0000.0,0020.22,0006.91,0005.88
2024-06-12 05:51:00,SystemResetWarning,0828.6,5.01,000.00,030.3,029.8,000.0,038.4,032.1,023.0,0000.0,0019.78,0006.88,0005.86
2024-06-12 05:52:00,SystemResetWarning,0828.6,5.00,000.00,030.4,029.9,000.0,038.4,032.1,022.6,0000.0,0018.69,0006.81,0005.84
2024-06-12 05:53:00,SystemResetWarning,0828.6,5.00,000.00,030.4,029.9,000.0,038.5,032.1,020.0,0000.0,0018.03,0006.73,0005.80
2024-06-12 05:54:00,SystemResetWarning,0828.6,4.99,000.00,030.4,029.8,000.0,038.5,032.1,019.7,0000.0,0017.67,0006.63,0005.72
2024-06-12 05:55:00,SystemResetWarning,0828.5,4.99,000.00,030.2,027.7,000.0,038.6,031.1,019.2,0000.0,0017.49,0006.54,0005.65
2024-06-12 05:56:00,SystemResetWarning,0828.4,5.02,000.00,029.8,026.3,000.0,038.6,030.4,020.3,0000.0,0016.20,0006.49,0005.56
2024-06-12 05:57:00,SystemResetWarning,0828.4,5.01,000.00,029.6,026.5,000.0,038.5,030.4,021.2,0000.0,0015.58,0006.44,0005.49
2024-06-12 05:58:00,SystemResetWarning,0828.5,4.99,000.00,029.5,026.9,000.0,038.3,030.6,020.6,0000.0,0014.88,0006.31,0005.42
2024-06-12 05:59:00,SystemResetWarning,0828.5,4.99,000.00,029.5,027.3,000.0,038.2,030.8,020.5,0000.0,0014.91,0006.23,0005.35
